EHI
5 6 8 8 8 11 13 12 11 13 14 14 11 7 4 4 3 3 3 3 3 3 4 4 4 4 4 4 5 6 6 5 6 5 5 4 5 5 5 3 1 0 0
7 8 9 9 10 14 17 16 15 16 17 16 12 8 6 5 4 4 3 3 3 3 4 4 4 4 4 4 6 7 7 7 6 6 5 5 5 5 4 3 2 1 0
11 10 10 9 11 15 18 18 21 22 22 20 16 11 9 7 6 5 4 3 3 4 4 5 4 4 4 5 8 9 10 9 8 7 7 7 6 6 5 4 4 3 2
14 13 11 8 7 9 11 14 19 21 21 20 18 14 11 9 8 7 6 4 5 5 5 6 6 6 6 7 9 10 11 11 10 9 8 8 9 8 6 6 6 6 5
16 15 12 8 5 6 7 10 13 15 15 16 17 16 14 13 12 11 9 7 7 7 7 7 8 9 10 10 10 11 10 10 10 9 8 9 10 9 7 7 7 7 6
14 15 14 12 9 7 7 9 10 12 13 14 14 15 17 18 18 15 12 10 10 9 9 9 10 12 12 12 11 10 10 10 10 9 8 8 9 9 9 9 8 7 6
12 14 17 16 13 9 8 9 12 15 15 14 13 14 17 20 20 17 14 12 11 10 10 10 11 12 12 11 10 10 10 11 11 11 11 10 11 12 14 14 12 9 7
10 11 14 16 13 9 8 9 12 15 16 15 14 14 16 18 18 15 13 12 11 10 9 10 11 12 11 11 10 10 11 13 14 14 14 14 13 15 17 19 17 13 9
8 8 10 11 11 9 8 8 9 12 13 14 15 15 14 14 15 15 14 13 11 10 9 9 10 11 12 12 11 10 11 15 17 17 17 16 15 16 19 20 20 17 13
8 7 7 7 7 9 8 7 7 8 9 11 12 11 11 11 13 14 12 11 10 10 9 9 8 9 11 12 11 10 12 15 18 19 19 18 18 18 19 19 19 17 15
8 8 8 6 5 6 7 6 6 6 8 8 8 8 9 10 12 12 11 9 9 9 10 9 8 7 9 12 13 14 15 17 19 20 21 21 20 19 18 18 17 16 16
9 9 9 8 5 5 7 6 5 6 8 10 10 11 11 11 11 11 10 8 9 10 10 10 10 10 11 14 17 19 19 19 20 22 23 23 22 20 18 17 16 15 14
11 11 11 11 9 8 8 7 5 5 8 13 15 15 15 13 12 11 10 10 12 13 12 12 12 13 15 17 21 23 22 21 22 23 24 23 22 21 19 17 15 13 12
15 17 17 16 13 12 9 8 7 7 9 14 16 16 16 16 15 13 11 12 14 15 15 15 15 16 18 19 21 24 24 22 22 23 23 22 21 19 17 16 15 14 12
17 20 23 20 16 15 14 12 11 11 12 13 13 13 15 16 16 14 11 11 13 15 17 18 18 19 18 18 18 21 23 23 23 24 23 20 17 13 11 9 11 12 12
13 17 20 19 16 15 17 17 16 14 14 14 12 13 14 14 13 12 10 10 12 14 17 19 19 18 17 13 12 15 19 22 22 23 22 18 12 8 5 4 5 8 9
8 11 15 15 13 13 16 18 17 16 16 15 14 14 13 11 9 10 12 13 14 16 18 19 19 19 15 10 7 9 14 18 20 21 19 14 9 6 5 4 3 4 6
6 10 12 12 11 13 15 16 16 16 16 15 16 16 15 12 12 13 16 18 18 18 20 20 19 19 15 8 4 6 11 16 18 19 16 13 9 5 5 6 5 5 5
6 9 11 10 12 14 16 17 16 15 15 14 15 16 16 16 17 19 20 20 20 20 20 19 17 17 13 6 3 6 10 14 15 16 14 11 8 4 3 6 8 8 7
7 11 12 13 16 17 17 18 17 16 15 14 13 14 16 18 21 23 22 20 19 19 20 17 15 15 12 6 3 5 9 12 13 15 13 9 5 2 2 5 8 8 7
12 14 17 20 22 22 19 19 18 17 17 15 14 16 16 17 20 22 21 18 17 18 19 17 15 16 14 8 4 4 7 11 14 14 11 7 2 0 1 3 6 6 5
17 17 19 23 26 25 22 20 19 18 17 17 17 16 15 14 16 18 18 17 16 17 17 16 16 18 17 12 6 3 5 8 13 14 10 5 1 0 0 1 2 3 3
17 18 20 24 26 25 22 20 19 17 16 17 17 16 15 14 15 16 17 16 16 16 15 15 18 21 20 15 9 5 3 4 8 11 8 3 0 0 0 0 1 2 3
14 16 19 21 22 22 21 18 17 16 15 15 16 16 16 16 17 17 17 17 17 16 15 16 19 21 20 17 12 8 6 4 5 6 5 3 1 1 2 1 1 3 4
13 15 17 18 18 19 18 15 13 14 14 15 16 17 17 17 17 16 15 14 15 14 13 13 16 18 17 13 10 9 7 5 4 4 5 5 4 4 4 3 3 5 6
14 16 16 16 17 18 15 12 11 12 14 16 17 16 16 16 15 14 12 10 10 10 10 10 11 14 13 9 6 6 6 5 4 5 7 8 6 6 6 4 4 6 6
Wind_Speed
7 8 8 8 8 8 7 7 7 6 5 3 3 3 3 2 2 1 2 2 1 2 1 1 2 1 1 1 1 1 2 1 0 0 0 1 1 2 1 1 1 2 1
8 9 9 8 9 9 8 8 7 7 6 4 3 2 1 2 1 1 1 2 2 2 3 2 2 2 1 2 2 2 1 0 1 2 1 1 2 2 2 1 1 1 1
10 10 10 9 9 9 9 7 7 7 6 5 4 3 2 2 2 2 2 2 2 3 2 2 2 2 3 2 3 3 2 1 1 1 3 2 1 1 2 1 1 1 1
9 10 10 10 10 9 9 8 8 7 6 5 4 4 3 2 2 2 2 2 3 3 3 3 3 3 3 2 4 3 3 3 2 1 1 2 2 2 0 1 2 2 1
9 10 10 10 9 9 9 8 8 7 6 6 5 5 4 3 2 2 2 2 3 3 3 3 3 3 3 3 3 2 3 3 3 2 1 1 1 2 2 1 1 1 1
9 9 9 9 8 8 9 8 8 7 7 7 6 5 4 3 2 2 2 3 2 3 3 3 3 4 3 3 4 4 4 3 3 3 2 2 2 2 2 2 2 1 0
8 9 9 9 8 8 9 8 8 8 7 7 6 6 5 5 5 4 3 3 2 2 3 3 3 3 3 4 4 4 4 4 4 4 3 2 2 2 2 2 2 2 1
7 8 8 8 8 9 8 8 8 8 8 7 7 5 6 5 4 4 4 3 3 2 1 3 3 4 4 4 4 4 4 3 4 4 4 3 3 3 3 3 2 2 2
8 8 8 8 7 7 8 7 8 7 7 7 7 6 6 5 4 4 5 4 3 2 2 3 3 3 4 4 4 3 4 3 5 4 4 4 3 3 3 3 3 3 3
7 7 7 7 7 7 7 7 7 7 7 7 6 5 6 5 5 5 4 4 3 3 3 3 3 3 3 4 4 4 3 4 4 3 3 4 3 2 3 3 3 3 3
7 7 6 7 7 7 7 7 6 7 7 6 6 5 5 5 6 5 5 4 4 3 3 3 3 3 3 4 4 4 5 5 4 4 4 4 4 3 3 3 3 3 3
6 6 6 6 6 7 7 6 6 6 6 6 6 6 5 5 5 5 5 4 4 4 4 4 3 3 3 3 4 4 4 5 5 5 4 5 3 4 4 3 3 3 3
5 5 5 5 5 6 6 6 6 6 6 6 6 6 5 5 5 4 4 4 4 4 4 4 4 4 4 4 4 4 4 4 4 4 5 5 4 5 3 4 4 3 3
5 5 5 4 4 5 5 5 6 5 5 5 6 5 5 5 4 4 4 4 4 4 4 4 4 4 4 4 4 4 4 4 4 4 4 5 5 4 4 4 4 4 4
5 5 5 4 4 4 4 5 5 5 5 5 5 5 4 4 4 4 4 4 4 4 4 4 4 4 4 3 3 4 4 4 4 4 4 4 3 2 3 3 3 3 4
5 5 5 5 5 5 4 4 5 4 4 5 5 4 4 4 4 4 4 4 4 4 4 4 4 5 3 0 1 4 4 4 5 4 4 4 4 3 4 2 3 4 5
5 5 5 5 5 5 5 5 5 5 5 5 5 4 5 5 5 5 4 4 4 4 4 4 4 4 2 1 2 5 5 5 4 4 4 4 3 4 3 4 6 6 5
4 5 5 5 5 5 5 5 5 5 5 6 5 5 5 5 5 4 4 4 4 4 4 4 4 4 3 3 4 5 6 5 5 5 5 4 4 3 3 4 4 5 5
3 3 4 4 4 4 4 5 5 5 6 6 6 5 6 5 5 5 5 5 4 4 4 4 4 5 4 4 5 5 5 4 5 5 4 5 5 2 4 5 5 5 4
2 3 3 3 3 4 4 5 6 6 6 6 5 5 5 5 5 5 5 4 4 4 5 5 5 5 4 5 6 6 5 4 4 4 4 3 4 4 5 6 5 5 4
1 2 2 3 2 3 4 5 5 5 5 4 4 5 5 5 5 4 4 4 4 4 5 5 5 5 5 6 7 7 5 4 5 4 4 3 5 6 6 7 6 5 5
1 1 1 1 2 3 4 5 5 4 3 4 4 5 5 5 4 4 4 5 5 5 5 5 6 5 5 5 7 9 8 6 6 5 4 2 4 5 7 6 5 5 6
0 1 1 1 1 2 3 3 3 2 3 4 4 4 5 4 4 5 5 5 5 5 5 5 5 4 4 4 7 9 9 9 6 4 2 3 6 7 8 9 8 7 7
1 1 0 0 0 1 2 2 2 3 3 4 4 4 4 4 4 4 5 5 5 5 5 5 5 4 4 3 4 4 5 6 6 5 4 6 9 9 7 6 7 7 6
1 1 1 1 2 2 2 2 2 2 3 4 4 4 4 4 4 4 3 4 4 4 5 4 4 4 4 3 2 4 4 4 4 4 5 5 5 5 5 5 5 5 5
2 2 2 2 2 3 2 2 2 2 3 3 4 4 3 3 3 3 3 2 3 2 4 4 5 4 2 1 3 5 4 4 4 5 6 6 5 5 5 5 5 5 5
Wind_Direction
176 174 177 177 169 166 167 169 169 166 178 178 182 177 175 179 176 179 148 182 190 172 201 182 155 205 167 176 180 187 172 201 227 243 180 137 123 84 105 118 102 115 118
176 178 178 175 173 171 172 172 175 173 183 177 186 187 187 189 186 184 168 204 195 202 191 195 207 192 181 187 196 218 247 248 262 291 284 212 148 117 95 125 145 128 145
184 181 180 180 179 178 179 177 179 178 186 182 184 177 180 202 183 183 186 207 210 209 226 199 223 220 223 194 211 218 231 247 236 277 300 307 13 51 113 101 111 112 129
188 185 183 183 185 183 180 180 181 183 185 191 196 197 196 195 194 199 177 190 209 218 213 215 219 233 237 215 227 210 237 249 246 205 264 320 337 308 309 176 136 151 172
189 185 184 184 185 184 183 182 183 187 189 199 197 206 207 204 197 193 172 215 203 218 224 218 224 231 237 235 249 233 242 242 257 255 228 213 217 244 260 275 269 213 174
186 182 178 176 182 183 184 183 182 189 194 201 205 211 208 214 217 212 196 214 211 210 212 219 224 236 242 232 233 234 224 245 265 268 253 237 238 233 238 249 255 264 303
184 179 174 175 180 183 186 185 184 193 198 202 208 209 212 213 215 221 215 238 230 210 202 221 223 233 236 239 233 224 237 230 235 248 255 258 256 246 246 252 262 273 257
180 178 176 177 181 183 185 187 188 196 201 205 208 212 218 222 219 222 237 232 242 239 219 225 226 229 234 235 226 231 226 223 233 242 252 253 249 244 236 243 251 256 251
175 173 173 177 181 185 187 190 192 199 205 210 208 209 220 233 234 226 232 237 237 234 230 242 238 232 229 236 233 233 237 233 239 237 226 238 240 241 243 237 239 252 259
177 173 170 175 182 183 185 192 196 200 206 209 211 203 213 221 229 233 233 244 247 249 243 241 241 238 235 235 238 231 233 236 240 247 249 247 241 241 236 236 240 248 260
175 171 170 173 180 180 178 186 194 200 202 208 209 212 210 212 217 223 225 226 235 236 238 244 245 239 236 238 237 237 231 236 239 239 235 243 254 254 246 234 236 236 237
173 167 169 174 182 183 181 182 189 198 199 200 205 206 208 211 215 214 217 219 222 229 230 239 243 245 240 237 235 240 235 234 236 239 241 244 238 241 255 252 243 237 233
173 168 168 175 188 190 189 188 192 198 199 196 203 203 204 206 215 213 214 217 219 226 230 233 239 247 248 243 238 238 242 240 241 242 240 241 238 239 240 252 250 245 237
179 175 171 176 187 195 197 202 202 199 201 202 205 202 208 210 215 212 215 219 223 226 230 235 240 242 244 244 245 239 237 237 243 246 248 249 245 244 241 241 248 258 256
192 188 182 182 190 198 202 209 211 205 203 205 211 208 208 208 215 212 216 218 223 229 230 234 237 240 237 238 250 248 239 238 244 246 245 246 256 275 263 265 251 253 257
203 201 197 194 199 203 206 208 214 211 207 211 220 215 209 207 214 216 219 219 222 233 234 234 239 242 246 47 292 272 252 241 240 243 247 233 217 216 220 246 262 269 259
210 207 206 208 210 209 208 210 209 210 212 216 223 220 213 215 217 218 216 221 226 233 240 243 244 240 234 200 237 259 260 246 243 244 246 250 220 216 232 217 220 235 248
219 211 213 214 219 212 205 213 205 211 219 219 219 220 218 218 215 217 223 226 229 235 240 240 243 243 221 196 216 245 242 245 241 241 242 243 233 221 238 241 233 236 233
243 230 228 224 220 212 204 210 210 213 223 226 223 221 220 218 215 216 223 229 230 234 238 234 237 240 226 197 206 238 236 233 238 237 234 237 230 195 234 237 236 239 240
255 240 230 226 213 209 205 215 219 219 226 232 232 226 223 223 226 227 230 232 232 235 239 235 235 235 228 194 201 230 242 234 235 230 226 208 230 193 216 237 239 242 247
257 244 233 225 211 207 210 221 225 228 233 235 236 229 223 224 223 224 228 232 233 235 241 239 239 233 227 196 198 217 245 243 242 235 232 202 176 204 220 243 249 255 261
283 247 220 218 214 211 214 225 231 232 233 231 228 223 219 225 217 217 224 228 231 230 234 238 242 231 218 212 204 211 231 258 249 248 249 205 173 217 228 237 246 249 252
319 286 229 215 215 218 223 232 242 241 231 227 225 222 217 220 217 217 221 224 228 235 235 235 239 235 222 199 194 209 225 235 250 260 273 220 210 228 230 227 229 231 238
275 256 216 212 245 240 236 231 229 235 233 234 230 222 217 216 214 222 225 231 233 239 243 242 243 238 227 219 201 211 214 217 231 240 221 209 217 230 239 226 220 230 243
297 277 255 252 263 266 261 253 234 230 235 237 230 221 219 218 219 228 243 247 247 255 258 259 255 249 238 225 219 230 230 234 236 237 233 231 224 226 226 229 229 233 232
313 307 298 288 283 277 276 276 260 240 236 233 228 225 222 216 223 225 226 241 258 230 239 260 273 267 270 221 217 234 243 243 228 238 241 238 235 237 235 235 230 229 235